| time (UTC) | temp C | wind direction | speed KPH | gust KPH | rain 1hr cm | rain 24hr cm | rain mn cm | humidity % | barometer mb |
| 20260505041558 | 8 | 293 | 0.0 | 0.0 | 0.00 | 0.00 | 0.00 | 91 | 1010.2 |
| 20260505041049 | 8 | 293 | 0.0 | 0.0 | 0.00 | 0.00 | 0.00 | 90 | 1010.0 |
| 20260505040541 | 9 | 293 | 0.0 | 0.0 | 0.00 | 0.00 | 0.00 | 90 | 1010.0 |
| 20260505040038 | 8 | 293 | 0.0 | 0.0 | 0.00 | 0.00 | 0.00 | 93 | 1010.0 |
| 20260505035518 | 7 | 293 | 0.0 | 0.0 | 0.00 | 0.00 | 0.00 | 93 | 1010.0 |
| 20260505035008 | 7 | 293 | 0.0 | 0.0 | 0.00 | 0.00 | 0.00 | 93 | 1010.2 |
| 20260505034457 | 7 | 293 | 0.0 | 0.0 | 0.00 | 0.00 | 0.00 | 93 | 1010.2 |
| 20260505033948 | 7 | 293 | 0.0 | 0.0 | 0.00 | 0.00 | 0.00 | 93 | 1010.2 |
| 20260505033437 | 7 | 293 | 0.0 | 0.0 | 0.00 | 0.00 | 0.00 | 93 | 1010.3 |
| 20260505032417 | 7 | 293 | 0.0 | 0.0 | 0.00 | 0.00 | 0.00 | 92 | 1010.2 |
| 20260505031907 | 7 | 293 | 0.0 | 0.0 | 0.00 | 0.00 | 0.00 | 92 | 1010.3 |
| 20260505031357 | 7 | 293 | 0.0 | 0.0 | 0.00 | 0.00 | 0.00 | 92 | 1010.0 |
| 20260505030846 | 7 | 293 | 0.0 | 0.0 | 0.00 | 0.00 | 0.00 | 91 | 1010.1 |
| 20260505030337 | 8 | 293 | 0.0 | 0.0 | 0.00 | 0.00 | 0.00 | 91 | 1010.2 |
| 20260505025826 | 8 | 293 | 0.0 | 3.2 | 0.00 | 0.00 | 0.00 | 90 | 1010.1 |
| 20260505025316 | 8 | 293 | 0.0 | 3.2 | 0.00 | 0.00 | 0.00 | 91 | 1010.2 |
| 20260505024806 | 8 | 293 | 0.0 | 0.0 | 0.00 | 0.00 | 0.00 | 90 | 1010.1 |
| 20260505024258 | 8 | 293 | 0.0 | 0.0 | 0.00 | 0.00 | 0.00 | 92 | 1010.0 |
| 20260505023746 | 8 | 293 | 0.0 | 0.0 | 0.00 | 0.00 | 0.00 | 91 | 1010.0 |
| 20260505023236 | 8 | 293 | 0.0 | 0.0 | 0.00 | 0.00 | 0.00 | 92 | 1009.8 |
| 20260505022726 | 7 | 293 | 0.0 | 0.0 | 0.00 | 0.00 | 0.00 | 90 | 1009.8 |
| 20260505021706 | 8 | 293 | 0.0 | 0.0 | 0.00 | 0.00 | 0.00 | 91 | 1010.4 |
| 20260505021212 | 7 | 293 | 0.0 | 0.0 | 0.00 | 0.00 | 0.00 | 91 | 1010.1 |
| 20260505020135 | 8 | 293 | 0.0 | 0.0 | 0.00 | 0.00 | 0.00 | 90 | 1010.2 |
| 20260505015625 | 8 | 293 | 0.0 | 0.0 | 0.00 | 0.00 | 0.00 | 90 | 1010.1 |
| 20260505015115 | 8 | 293 | 0.0 | 0.0 | 0.00 | 0.00 | 0.00 | 90 | 1010.0 |
| 20260505014055 | 8 | 293 | 0.0 | 0.0 | 0.00 | 0.00 | 0.00 | 89 | 1009.8 |
| 20260505013545 | 8 | 293 | 0.0 | 0.0 | 0.00 | 0.00 | 0.00 | 89 | 1010.0 |
| 20260505013034 | 9 | 293 | 0.0 | 0.0 | 0.00 | 0.00 | 0.00 | 89 | 1009.4 |
| 20260505012525 | 9 | 293 | 0.0 | 0.0 | 0.00 | 0.00 | 0.00 | 89 | 1009.5 |
| 20260505012014 | 8 | 293 | 0.0 | 0.0 | 0.00 | 0.00 | 0.00 | 89 | 1009.2 |
| 20260505010954 | 8 | 293 | 0.0 | 0.0 | 0.00 | 0.00 | 0.00 | 89 | 1009.5 |
| 20260505005934 | 8 | 293 | 0.0 | 0.0 | 0.00 | 0.00 | 0.00 | 85 | 1009.0 |
| 20260505005424 | 10 | 293 | 0.0 | 0.0 | 0.00 | 0.00 | 0.00 | 83 | 1009.1 |
| 20260505004913 | 11 | 293 | 0.0 | 0.0 | 0.00 | 0.00 | 0.00 | 80 | 1009.0 |
| 20260505004403 | 12 | 293 | 0.0 | 0.0 | 0.00 | 0.00 | 0.00 | 81 | 1008.8 |
| 20260505003853 | 11 | 293 | 0.0 | 0.0 | 0.00 | 0.00 | 0.00 | 81 | 1009.1 |
| 20260505003343 | 11 | 293 | 0.0 | 0.0 | 0.00 | 0.00 | 0.00 | 80 | 1008.8 |
| 20260505002322 | 12 | 293 | 0.0 | 0.0 | 0.00 | 0.00 | 0.00 | 77 | 1008.4 |
| 20260505001303 | 11 | 293 | 0.0 | 0.0 | 0.00 | 0.00 | 0.00 | 81 | 1008.4 |
| 20260505000753 | 11 | 293 | 0.0 | 6.4 | 0.00 | 0.00 | 0.00 | 81 | 1008.2 |
| 20260505000243 | 11 | 293 | 0.0 | 9.7 | 0.00 | 0.00 | 0.00 | 79 | 1008.2 |
| 20260504235733 | 12 | 293 | 4.8 | 12.9 | 0.00 | 0.00 | 0.00 | 77 | 1008.7 |
| 20260504235223 | 13 | 293 | 4.8 | 12.9 | 0.00 | 0.00 | 0.00 | 74 | 1008.2 |
| 20260504234712 | 13 | 293 | 6.4 | 12.9 | 0.00 | 0.00 | 0.00 | 75 | 1008.4 |
| 20260504234202 | 12 | 293 | 8.0 | 12.9 | 0.00 | 0.00 | 0.00 | 77 | 1008.2 |
| 20260504233652 | 12 | 293 | 4.8 | 9.7 | 0.00 | 0.00 | 0.00 | 80 | 1008.1 |
| 20260504233142 | 11 | 293 | 0.0 | 0.0 | 0.00 | 0.00 | 0.00 | 80 | 1008.1 |
| 20260504232632 | 10 | 293 | 0.0 | 0.0 | 0.00 | 0.00 | 0.00 | 81 | 1008.2 |
| 20260504232121 | 11 | 293 | 0.0 | 0.0 | 0.00 | 0.00 | 0.00 | 80 | 1008.4 |
| 20260504231611 | 11 | 293 | 0.0 | 0.0 | 0.00 | 0.00 | 0.00 | 81 | 1008.0 |
| 20260504231102 | 11 | 293 | 0.0 | 0.0 | 0.00 | 0.00 | 0.00 | 79 | 1008.0 |
| 20260504230551 | 12 | 293 | 0.0 | 0.0 | 0.00 | 0.00 | 0.00 | 78 | 1008.1 |
| 20260504230043 | 12 | 293 | 0.0 | 3.2 | 0.00 | 0.00 | 0.00 | 78 | 1008.1 |
| 20260504225530 | 12 | 293 | 0.0 | 3.2 | 0.00 | 0.00 | 0.00 | 78 | 1007.9 |
| 20260504224000 | 13 | 293 | 0.0 | 6.4 | 0.00 | 0.00 | 0.00 | 75 | 1008.0 |
| 20260504223450 | 12 | 293 | 3.2 | 6.4 | 0.00 | 0.00 | 0.00 | 76 | 1007.9 |
| 20260504222940 | 12 | 293 | 0.0 | 6.4 | 0.00 | 0.00 | 0.00 | 76 | 1007.7 |
| 20260504222431 | 12 | 293 | 0.0 | 6.4 | 0.00 | 0.00 | 0.00 | 73 | 1007.7 |
| 20260504221410 | 14 | 293 | 0.0 | 0.0 | 0.00 | 0.00 | 0.00 | 70 | 1007.8 |
| 20260504220900 | 14 | 293 | 0.0 | 0.0 | 0.00 | 0.00 | 0.00 | 69 | 1008.0 |
| 20260504220350 | 15 | 293 | 0.0 | 0.0 | 0.00 | 0.00 | 0.00 | 68 | 1007.7 |
| 20260504215840 | 14 | 293 | 0.0 | 0.0 | 0.00 | 0.00 | 0.00 | 68 | 1007.8 |
| 20260504215330 | 14 | 293 | 0.0 | 0.0 | 0.00 | 0.00 | 0.00 | 68 | 1007.7 |
| 20260504214820 | 15 | 293 | 0.0 | 0.0 | 0.00 | 0.00 | 0.00 | 66 | 1007.5 |
| 20260504214310 | 15 | 293 | 0.0 | 0.0 | 0.00 | 0.00 | 0.00 | 65 | 1007.5 |
| 20260504213800 | 16 | 293 | 0.0 | 0.0 | 0.00 | 0.00 | 0.00 | 63 | 1007.5 |
| 20260504213248 | 17 | 293 | 0.0 | 0.0 | 0.00 | 0.00 | 0.00 | 61 | 1007.5 |
| 20260504212739 | 17 | 293 | 0.0 | 3.2 | 0.00 | 0.00 | 0.00 | 59 | 1007.4 |
| 20260504211718 | 18 | 293 | 0.0 | 3.2 | 0.00 | 0.00 | 0.00 | 57 | 1007.4 |
| 20260504210659 | 19 | 293 | 0.0 | 9.7 | 0.00 | 0.00 | 0.00 | 54 | 1007.4 |
| 20260504205639 | 20 | 293 | 6.4 | 12.9 | 0.00 | 0.00 | 0.00 | 52 | 1007.4 |
| 20260504205128 | 20 | 293 | 6.4 | 12.9 | 0.00 | 0.00 | 0.00 | 52 | 1007.3 |
| 20260504204108 | 20 | 293 | 8.0 | 14.5 | 0.00 | 0.00 | 0.00 | 50 | 1007.4 |
| 20260504203048 | 21 | 293 | 8.0 | 17.7 | 0.00 | 0.00 | 0.00 | 48 | 1007.7 |
| 20260504202538 | 22 | 293 | 6.4 | 12.9 | 0.00 | 0.00 | 0.00 | 43 | 1007.3 |
| 20260504202028 | 22 | 293 | 8.0 | 12.9 | 0.00 | 0.00 | 0.00 | 42 | 1007.2 |
| 20260504201520 | 22 | 293 | 8.0 | 12.9 | 0.00 | 0.00 | 0.00 | 42 | 1007.4 |
| 20260504201007 | 22 | 293 | 4.8 | 12.9 | 0.00 | 0.00 | 0.00 | 41 | 1007.2 |
| 20260504200458 | 22 | 293 | 6.4 | 12.9 | 0.00 | 0.00 | 0.00 | 41 | 1007.5 |
| 20260504195947 | 22 | 293 | 0.0 | 14.5 | 0.00 | 0.00 | 0.00 | 43 | 1007.4 |
| 20260504195438 | 22 | 293 | 8.0 | 14.5 | 0.00 | 0.00 | 0.00 | 42 | 1007.2 |
| 20260504194927 | 22 | 293 | 4.8 | 12.9 | 0.00 | 0.00 | 0.00 | 42 | 1007.5 |
| 20260504194417 | 22 | 293 | 0.0 | 17.7 | 0.00 | 0.00 | 0.00 | 42 | 1007.4 |
| 20260504193907 | 22 | 293 | 6.4 | 17.7 | 0.00 | 0.00 | 0.00 | 42 | 1007.5 |
| 20260504193357 | 22 | 293 | 6.4 | 11.3 | 0.00 | 0.00 | 0.00 | 42 | 1007.5 |
| 20260504192847 | 22 | 293 | 4.8 | 11.3 | 0.00 | 0.00 | 0.00 | 42 | 1007.4 |
| 20260504192336 | 22 | 293 | 3.2 | 11.3 | 0.00 | 0.00 | 0.00 | 42 | 1007.7 |
| 20260504191828 | 22 | 293 | 0.0 | 6.4 | 0.00 | 0.00 | 0.00 | 41 | 1007.7 |
| 20260504191316 | 22 | 293 | 3.2 | 12.9 | 0.00 | 0.00 | 0.00 | 42 | 1007.8 |
| 20260504190807 | 22 | 293 | 0.0 | 14.5 | 0.00 | 0.00 | 0.00 | 41 | 1007.8 |
| 20260504190256 | 22 | 293 | 9.7 | 14.5 | 0.00 | 0.00 | 0.00 | 43 | 1007.8 |
| 20260504185746 | 23 | 293 | 6.4 | 17.7 | 0.00 | 0.00 | 0.00 | 42 | 1007.9 |
| 20260504185236 | 22 | 293 | 8.0 | 17.7 | 0.00 | 0.00 | 0.00 | 43 | 1007.9 |
| 20260504184726 | 23 | 293 | 3.2 | 11.3 | 0.00 | 0.00 | 0.00 | 42 | 1008.0 |
| 20260504184216 | 22 | 293 | 3.2 | 9.7 | 0.00 | 0.00 | 0.00 | 42 | 1008.1 |
| 20260504183705 | 22 | 293 | 0.0 | 9.7 | 0.00 | 0.00 | 0.00 | 42 | 1007.9 |
| 20260504183156 | 22 | 293 | 0.0 | 6.4 | 0.00 | 0.00 | 0.00 | 42 | 1008.1 |
| 20260504182646 | 22 | 293 | 0.0 | 6.4 | 0.00 | 0.00 | 0.00 | 42 | 1008.3 |
| 20260504182135 | 23 | 293 | 0.0 | 9.7 | 0.00 | 0.00 | 0.00 | 42 | 1008.2 |
| 20260504181625 | 22 | 293 | 0.0 | 17.7 | 0.00 | 0.00 | 0.00 | 42 | 1008.2 |
| 20260504181116 | 22 | 293 | 6.4 | 17.7 | 0.00 | 0.00 | 0.00 | 43 | 1008.1 |
| 20260504180605 | 22 | 293 | 0.0 | 14.5 | 0.00 | 0.00 | 0.00 | 42 | 1008.3 |
| 20260504180054 | 22 | 293 | 8.0 | 14.5 | 0.00 | 0.00 | 0.00 | 43 | 1008.3 |
| 20260504175544 | 22 | 293 | 3.2 | 12.9 | 0.00 | 0.00 | 0.00 | 43 | 1008.4 |
| 20260504174525 | 22 | 293 | 4.8 | 17.7 | 0.00 | 0.00 | 0.00 | 43 | 1008.7 |
| 20260504174015 | 22 | 293 | 1.6 | 17.7 | 0.00 | 0.00 | 0.00 | 43 | 1008.6 |
| 20260504173504 | 22 | 293 | 12.9 | 17.7 | 0.00 | 0.00 | 0.00 | 44 | 1008.7 |
| 20260504172954 | 22 | 293 | 6.4 | 17.7 | 0.00 | 0.00 | 0.00 | 43 | 1008.9 |
| 20260504172444 | 22 | 293 | 9.7 | 17.7 | 0.00 | 0.00 | 0.00 | 45 | 1008.8 |
| 20260504171933 | 21 | 293 | 3.2 | 17.7 | 0.00 | 0.00 | 0.00 | 45 | 1009.0 |
| 20260504170914 | 21 | 293 | 0.0 | 17.7 | 0.00 | 0.00 | 0.00 | 45 | 1009.1 |
| 20260504170405 | 22 | 293 | 0.0 | 17.7 | 0.00 | 0.00 | 0.00 | 44 | 1009.0 |
| 20260504151020 | 18 | 270 | 0.0 | 12.9 | 0.00 | 0.00 | 0.00 | 50 | 1010.9 |
| 20260504141330 | 17 | 270 | 0.0 | 11.3 | 0.00 | 0.00 | 0.00 | 52 | 1011.6 |
| 20260504140309 | 17 | 270 | 6.4 | 11.3 | 0.00 | 0.00 | 0.00 | 55 | 1011.6 |
| 20260504130619 | 15 | 225 | 0.0 | 0.0 | 0.00 | 0.00 | 0.00 | 62 | 1011.7 |
| 20260504130108 | 15 | 225 | 0.0 | 0.0 | 0.00 | 0.00 | 0.00 | 63 | 1011.7 |
| 20260504110216 | 2 | 225 | 0.0 | 0.0 | 0.00 | 0.00 | 0.00 | 95 | 1010.6 |
| 20260504100524 | 2 | 225 | 0.0 | 0.0 | 0.00 | 0.00 | 0.00 | 94 | 1010.4 |
| 20260504081652 | 6 | 225 | 3.2 | 6.4 | 0.00 | 0.00 | 0.00 | 88 | 1009.4 |
| 20260504081143 | 6 | 225 | 4.8 | 6.4 | 0.00 | 0.00 | 0.00 | 88 | 1009.7 |
| 20260504080631 | 6 | 225 | 6.4 | 6.4 | 0.00 | 0.00 | 0.00 | 89 | 1009.3 |
| 20260504060229 | 7 | 225 | 3.2 | 12.9 | 0.00 | 0.00 | 0.00 | 82 | 1009.4 |
| 20260504050543 | 7 | 225 | 6.4 | 14.5 | 0.00 | 0.00 | 0.00 | 82 | 1010.3 |
| 20260504045517 | 7 | 225 | 6.4 | 14.5 | 0.00 | 0.00 | 0.00 | 81 | 1010.1 |